Location: Binningen
(47.7924°N, 8.7261°E)
Time: 05:44:14
(UTC+00:00)

Cosmos 1733 Rocket - Pass Details

Date: 06 October 2021
Orbit: 604 x 627 km, 82.5° (Epoch: 25 October)

Event Time Altitude Azimuth Distance (km) Brightness Sun altitude
Rises 04:29:58 0° 334° (NNW) 2,905 6.3 -11.1°
Reaches altitude 10° 04:32:57 10° 313° (NW) 1,998 5.3 -10.6°
Maximum altitude 04:35:34 16° 276° (W) 1,654 4.6 -10.2°
Drops below altitude 10° 04:38:12 10° 239° (WSW) 1,995 5.1 -9.7°
Sets 04:41:11 0° 218° (SW) 2,899 6.1 -9.2°
